Temperature
22 21 20 20 19 19 19 19 18 18 18 18 18 17 17 17 17 17 17 17 17 17 17 17 17 17 17 17 17 17 17 17 17 17 17 17 17 17 17 17 17 17 17
22 21 20 20 19 19 19 19 19 18 18 18 18 17 17 17 17 17 17 17 17 17 17 17 17 17 17 17 17 17 17 17 17 17 18 18 18 17 17 17 17 17 17
23 22 21 20 20 19 19 19 19 19 18 18 18 17 17 17 17 17 17 17 17 17 17 17 17 17 17 17 17 17 17 17 17 17 17 18 18 18 17 17 17 17 17
23 22 21 20 20 20 19 19 19 19 19 18 18 18 18 18 18 17 17 17 17 17 17 17 17 17 17 17 17 17 17 17 17 17 17 17 17 17 17 17 17 17 17
24 22 22 21 20 20 19 19 19 19 19 18 18 18 18 18 18 17 17 17 17 17 17 17 17 17 17 17 17 17 17 17 17 17 17 17 17 17 18 18 17 17 17
23 22 22 21 20 20 19 19 19 19 19 18 18 18 18 18 18 18 18 17 17 17 17 17 17 17 17 17 17 17 17 17 17 17 17 17 17 17 17 17 17 17 17
23 22 21 21 21 20 20 19 19 19 19 18 18 18 18 18 18 18 17 17 17 17 17 17 17 17 17 17 17 17 17 17 17 17 17 17 17 17 17 17 17 17 17
23 22 21 21 20 20 19 19 19 19 18 18 18 18 18 18 18 17 17 17 17 18 17 17 17 17 17 17 17 17 17 17 17 17 17 17 17 17 17 17 17 17 18
23 22 22 21 20 20 19 19 19 19 18 18 18 18 18 18 18 17 17 17 17 17 17 17 17 17 17 17 17 17 17 17 16 16 16 16 16 16 17 16 17 17 17
23 22 22 21 20 20 19 19 19 19 19 18 18 18 18 18 18 18 17 17 17 17 17 17 17 17 17 17 17 17 16 17 16 16 16 16 16 16 16 16 16 16 17
23 22 21 21 20 20 19 19 19 19 18 18 18 18 18 18 18 17 18 18 18 17 17 17 17 17 17 17 17 16 16 16 16 16 16 16 16 16 16 16 16 16 16
22 22 21 20 20 20 19 19 19 18 18 18 18 18 18 18 17 17 17 17 17 17 17 17 17 17 17 17 16 16 16 16 16 16 16 16 16 16 16 16 16 16 16
22 21 21 20 19 19 19 19 19 18 18 18 18 18 18 18 18 18 17 17 17 17 17 17 17 17 16 16 16 16 16 16 16 16 16 16 16 16 16 16 16 16 16
21 21 20 20 19 19 19 18 18 18 18 18 18 18 18 18 17 17 17 17 17 17 17 17 17 16 16 16 16 16 16 16 16 16 16 16 15 15 15 15 15 15 15
20 20 19 19 19 18 18 18 18 18 18 17 17 17 17 17 17 17 17 17 17 16 16 16 16 16 16 16 16 16 16 16 16 16 16 15 15 15 15 15 15 15 15
20 19 19 18 18 18 18 18 18 18 18 17 17 17 17 17 17 17 17 16 16 16 16 16 16 16 16 16 16 16 16 15 15 15 15 15 15 15 15 15 15 15 15
19 18 18 18 18 18 18 17 17 17 17 17 17 17 17 16 16 16 16 16 16 16 16 16 15 15 16 16 16 16 15 15 15 15 15 15 15 15 15 15 15 15 15
18 18 18 18 18 17 17 17 17 17 17 17 17 17 16 16 16 16 16 16 16 16 15 15 15 15 15 15 15 15 15 15 15 14 14 14 15 14 14 14 14 14 14
17 17 17 17 17 17 17 17 16 16 16 16 16 16 16 16 16 15 15 15 15 15 15 15 15 15 15 15 15 15 15 14 14 14 14 14 14 14 14 14 13 13 13
17 17 17 17 17 16 16 16 16 16 16 16 16 16 16 16 15 15 15 15 15 15 15 14 14 14 14 14 14 14 14 13 13 14 13 14 14 14 14 13 13 13 13
17 17 17 16 16 16 16 16 16 15 15 16 16 15 15 15 15 15 15 14 14 14 14 14 14 14 14 14 14 14 13 13 13 13 13 13 13 13 13 13 13 13 13
16 16 16 16 16 16 15 15 15 15 15 15 15 15 15 15 15 14 14 14 14 14 14 13 13 13 13 13 13 13 13 13 13 13 13 13 13 13 13 13 13 13 13
16 16 16 15 15 15 15 15 15 15 14 14 14 14 14 14 14 14 14 14 14 14 13 13 13 13 12 12 13 13 13 12 12 12 12 12 12 12 12 12 12 12 12
15 15 15 15 15 14 14 14 14 14 14 14 14 14 14 14 14 14 13 13 13 13 13 13 12 12 12 12 12 12 12 12 12 11 12 12 12 12 12 12 11 11 11
15 15 15 15 14 14 14 14 14 14 14 14 14 14 14 14 13 13 13 13 13 12 12 12 12 12 11 11 11 11 11 11 11 11 11 11 11 11 11 11 11 11 11
15 14 14 14 14 14 14 14 14 13 13 14 13 14 14 14 14 13 13 13 12 12 12 12 12 11 11 11 11 11 11 11 11 11 11 11 11 11 11 11 11 11 11
Wind_Speed
9 8 8 7 6 6 5 5 5 5 4 3 3 3 3 2 2 2 3 3 3 3 2 2 3 2 2 2 3 2 3 2 1 1 1 1 2 2 2 3 3 4 5
9 9 9 8 7 7 7 6 6 6 5 4 3 2 2 2 2 2 3 2 3 3 2 2 2 2 2 2 2 2 1 1 1 2 2 2 2 2 3 3 4 3 4
10 10 10 9 8 8 8 7 7 7 6 5 4 3 3 2 2 2 2 2 3 3 2 2 1 1 2 2 2 2 3 1 1 1 2 2 1 1 2 3 3 3 3
10 10 9 9 8 8 8 8 8 7 6 6 5 5 4 3 2 2 2 3 3 3 2 2 1 1 1 1 2 2 2 2 2 2 2 2 2 2 1 3 3 4 4
9 9 9 9 8 7 7 8 8 7 6 6 6 5 4 3 3 3 3 2 2 2 2 2 2 1 1 1 1 1 2 2 2 2 2 2 2 3 3 2 2 2 3
8 8 8 8 7 7 7 7 7 7 6 6 6 6 5 4 3 3 3 3 3 2 3 3 2 2 2 2 2 2 3 2 2 3 2 3 2 3 3 3 3 3 2
8 7 7 7 7 7 7 7 7 7 7 7 6 6 6 5 5 4 4 3 3 3 3 3 3 3 3 3 3 3 3 3 4 4 4 3 3 3 3 4 3 3 3
7 7 7 7 7 7 8 8 8 8 7 7 6 6 6 5 4 4 4 3 3 3 3 3 4 4 4 4 4 4 4 3 4 4 4 4 4 4 4 4 4 4 3
5 7 7 7 7 7 7 8 8 8 7 7 7 6 6 5 4 4 4 4 3 3 4 4 5 5 5 4 4 4 4 4 4 4 4 4 4 4 4 4 4 5 4
4 5 6 6 7 7 7 7 7 7 7 7 6 6 6 6 5 5 5 4 4 3 4 4 4 4 5 5 4 4 4 4 4 4 4 4 4 3 4 4 4 5 5
3 4 4 5 6 6 6 7 7 7 7 6 6 5 5 5 6 5 5 5 5 4 5 5 4 4 5 5 5 5 5 5 5 5 5 5 5 4 4 5 5 5 5
2 3 4 4 4 5 6 6 7 7 6 6 6 6 5 5 5 5 5 5 5 5 5 5 5 5 5 5 6 6 6 6 6 6 6 6 5 5 5 5 5 5 5
2 3 3 3 4 5 5 5 5 6 6 6 5 5 5 5 5 5 5 5 5 5 5 5 5 5 5 5 6 6 6 6 6 7 7 7 6 6 5 6 6 5 6
1 1 2 2 3 4 4 4 4 4 5 5 5 5 5 5 5 5 5 5 5 5 5 5 5 5 6 6 6 6 6 6 7 6 6 7 7 7 7 6 6 6 6
0 0 0 1 2 3 3 3 4 4 4 4 4 4 4 4 4 5 5 5 5 5 5 5 5 5 5 5 5 5 6 5 6 6 6 6 6 5 6 6 6 6 6
1 1 1 1 1 3 3 3 3 3 3 3 3 3 3 4 4 4 5 4 5 5 5 5 5 5 4 1 2 4 4 4 5 6 6 6 6 6 6 6 6 6 8
1 1 2 2 1 2 3 3 3 3 4 3 3 3 4 4 4 4 4 5 5 5 5 5 4 4 3 0 1 3 4 5 5 6 6 6 5 5 6 6 8 7 7
1 2 2 1 1 2 3 3 3 3 3 3 3 3 3 4 3 4 4 4 4 4 4 4 4 4 3 2 2 3 4 5 5 6 6 6 6 5 6 7 6 6 6
1 1 1 1 0 1 2 3 3 3 2 2 2 3 3 3 3 4 3 3 3 3 4 3 4 4 3 3 3 4 3 4 5 5 5 5 5 3 5 7 7 7 6
1 1 1 1 0 0 1 2 2 3 2 2 2 2 3 3 3 3 3 2 3 3 2 2 2 2 2 1 2 4 4 4 4 4 4 3 3 3 4 6 7 8 7
1 1 1 0 0 0 1 2 2 2 2 2 2 2 2 3 3 2 1 1 2 1 1 1 1 1 1 1 1 2 3 4 4 4 4 3 2 3 5 6 6 7 8
1 1 0 0 0 0 1 2 2 2 2 2 2 2 2 2 1 1 2 2 2 2 2 1 1 1 1 1 1 1 3 5 4 4 4 2 1 3 5 5 5 7 8
1 1 0 1 1 1 1 2 1 1 1 2 2 2 2 1 1 2 2 2 2 1 1 1 1 1 1 0 1 3 3 4 4 4 3 3 3 4 5 5 6 6 6
1 1 1 2 1 1 1 1 1 1 2 2 2 2 2 2 2 1 1 1 1 1 1 1 1 1 1 2 2 2 2 3 4 4 3 4 5 5 5 4 5 5 5
1 1 2 2 2 1 1 1 1 2 2 2 2 2 2 2 2 1 0 0 1 0 1 1 2 2 2 3 4 3 3 3 3 3 3 3 3 3 4 4 4 5 4
2 2 2 2 2 1 1 1 1 2 2 2 2 2 2 2 1 1 2 4 2 4 2 1 2 1 2 1 2 3 4 5 4 3 3 3 3 4 4 5 5 4 4
Wind_Direction
177 176 179 184 183 182 183 184 178 169 178 177 180 168 165 166 149 151 137 139 130 127 145 136 133 164 154 157 155 153 159 172 157 174 187 197 212 209 208 214 208 202 204
179 181 185 188 190 188 191 189 187 180 186 179 178 172 166 170 153 146 135 146 139 149 152 142 165 166 154 166 165 173 214 200 195 234 228 223 201 207 207 204 209 216 205
188 188 191 193 194 193 195 196 193 188 193 185 178 168 165 187 168 161 150 152 157 154 134 146 164 162 188 173 183 195 206 226 230 244 261 272 253 211 180 205 210 211 213
190 189 190 192 196 197 193 195 190 190 191 189 190 187 186 190 183 175 153 155 159 160 156 157 165 177 188 170 205 190 203 214 217 208 246 271 292 265 218 200 194 213 215
190 189 191 192 194 192 191 188 186 188 189 191 191 197 200 196 185 168 155 166 157 167 172 163 172 179 199 186 213 218 233 222 232 224 215 231 239 246 250 240 240 221 215
186 187 189 188 191 188 186 182 179 184 187 191 195 201 200 194 184 179 175 177 170 170 180 182 184 192 204 196 209 215 215 237 246 258 246 241 246 242 247 246 250 245 231
182 184 187 187 189 188 187 184 180 182 185 190 195 201 203 197 198 201 192 197 193 186 183 191 193 202 209 213 219 218 242 236 235 243 249 254 257 261 258 257 258 259 248
176 183 187 188 188 188 188 186 183 185 187 190 195 199 203 204 203 201 206 201 210 202 183 195 201 207 213 212 208 220 224 231 237 246 251 252 254 250 238 243 255 259 259
176 184 184 186 186 185 186 188 185 186 189 190 192 197 204 213 211 201 208 210 208 205 196 202 208 213 216 219 222 228 231 230 238 244 236 242 248 246 246 244 252 261 266
168 177 182 183 181 180 180 179 177 177 180 184 193 194 199 204 207 207 207 209 212 217 218 218 217 221 221 221 229 236 237 237 240 248 256 254 250 249 246 243 244 252 262
166 164 169 175 178 175 172 175 177 180 181 183 186 192 193 197 201 203 207 210 216 217 219 221 218 221 226 227 230 235 240 241 243 246 241 242 254 252 247 241 242 243 249
162 161 157 157 169 172 175 178 180 184 185 183 185 189 189 191 199 203 209 213 218 222 222 227 228 231 234 234 234 236 236 239 244 248 247 245 238 237 252 253 249 248 248
150 158 157 159 170 173 175 181 188 187 186 185 189 189 193 197 205 212 214 217 221 228 230 228 231 236 242 244 241 238 238 239 243 245 246 247 244 243 244 249 252 251 248
120 145 157 172 178 177 178 185 190 189 191 191 194 197 202 203 211 216 222 223 223 226 229 232 237 239 241 244 246 239 240 244 243 241 244 247 245 244 245 244 248 254 257
169 176 237 218 194 180 183 190 191 185 185 191 199 203 209 212 216 219 224 228 230 232 232 235 240 242 241 244 245 245 241 241 244 245 244 245 250 263 259 259 253 252 253
276 310 312 303 217 190 187 188 187 175 173 183 197 199 208 215 217 222 228 233 239 243 238 238 242 246 249 206 261 261 255 250 250 255 254 245 237 239 237 255 270 272 258
325 317 304 293 237 197 183 181 177 171 178 188 196 196 204 213 222 230 235 239 243 244 242 242 242 244 251 204 231 263 259 254 256 257 259 260 252 240 246 232 228 240 246
344 327 304 296 224 177 168 165 163 167 180 190 202 205 209 218 227 234 238 243 241 240 236 236 235 238 235 191 216 242 248 259 261 261 261 260 264 262 262 256 249 248 245
345 335 315 301 276 165 158 164 168 170 181 192 205 212 217 220 224 231 237 241 242 246 245 235 232 234 228 193 213 235 248 252 256 259 259 260 264 289 287 263 256 255 255
26 11 11 26 138 152 160 169 173 184 198 206 213 210 212 215 224 230 240 248 242 245 245 233 231 231 229 175 208 249 253 258 261 255 253 250 267 283 274 256 257 257 259
26 17 43 23 328 184 163 185 189 204 207 204 202 207 211 211 215 212 217 233 217 200 209 206 213 210 212 183 203 265 270 270 271 266 262 260 198 239 257 259 259 266 270
356 347 40 48 4 107 143 186 205 210 200 197 194 192 198 206 182 191 203 197 193 183 186 199 230 233 215 245 276 278 271 293 277 276 273 277 215 235 247 255 268 273 270
238 238 189 171 171 169 171 189 202 196 190 185 184 180 173 171 167 180 179 178 172 184 199 222 251 287 301 299 197 225 240 270 276 286 314 300 278 260 250 240 254 262 266
243 206 195 187 180 183 187 192 178 178 167 162 164 162 156 154 144 182 179 172 171 198 223 252 276 297 309 320 320 301 271 245 258 278 261 241 248 255 274 269 255 258 269
236 210 205 199 191 179 175 170 152 163 166 162 168 171 164 152 155 146 79 187 156 5 276 286 298 315 316 344 349 319 310 305 305 294 271 267 267 265 267 272 275 278 273
226 211 206 192 184 179 170 171 174 169 178 178 178 181 172 154 161 138 100 68 83 86 79 3 321 344 31 14 308 305 320 323 313 305 300 299 289 283 281 279 280 280 286
Height
1527 1529 1530 1531 1532 1532 1532 1533 1533 1533 1534 1534 1535 1536 1537 1537 1538 1538 1539 1539 1539 1540 1541 1543 1543 1544 1545 1546 1548 1549 1550 1551 1552 1553 1553 1554 1554 1554 1554 1554 1554 1555 1555
1525 1527 1528 1529 1530 1531 1531 1532 1533 1533 1533 1534 1534 1536 1537 1538 1539 1540 1539 1540 1540 1541 1542 1542 1543 1544 1545 1546 1547 1548 1550 1551 1551 1552 1552 1553 1554 1553 1553 1553 1553 1553 1554
1522 1525 1527 1528 1529 1530 1530 1531 1532 1532 1533 1534 1535 1536 1537 1539 1540 1540 1541 1541 1541 1542 1542 1543 1544 1544 1545 1546 1547 1548 1549 1550 1551 1552 1552 1552 1552 1552 1552 1552 1552 1551 1551
1519 1522 1524 1526 1527 1528 1529 1530 1531 1532 1532 1533 1534 1536 1537 1539 1540 1541 1541 1542 1542 1542 1543 1543 1543 1544 1546 1546 1547 1548 1549 1549 1550 1550 1550 1551 1551 1551 1551 1551 1551 1550 1549
1517 1520 1522 1523 1525 1527 1528 1529 1530 1531 1532 1533 1534 1535 1537 1538 1540 1540 1541 1542 1542 1543 1543 1543 1544 1544 1545 1546 1547 1547 1548 1549 1549 1550 1550 1550 1550 1550 1550 1550 1550 1549 1548
1515 1518 1520 1522 1523 1525 1526 1528 1528 1529 1530 1532 1533 1534 1536 1537 1538 1539 1540 1541 1542 1542 1543 1544 1544 1544 1545 1545 1546 1546 1547 1547 1547 1548 1549 1549 1549 1549 1549 1548 1547 1547 1547
1513 1515 1517 1519 1521 1523 1524 1526 1526 1528 1529 1531 1532 1533 1535 1536 1537 1538 1540 1541 1542 1542 1542 1543 1543 1544 1544 1544 1545 1545 1545 1546 1546 1546 1547 1547 1547 1547 1547 1547 1546 1546 1546
1511 1513 1515 1517 1519 1520 1522 1523 1524 1526 1527 1529 1530 1532 1534 1536 1537 1538 1539 1540 1541 1541 1541 1542 1542 1542 1542 1543 1543 1543 1544 1544 1544 1544 1544 1544 1545 1545 1545 1545 1545 1544 1544
1509 1511 1513 1515 1516 1518 1519 1521 1522 1524 1526 1527 1529 1530 1532 1534 1535 1536 1537 1538 1539 1540 1540 1540 1540 1540 1541 1541 1541 1541 1542 1542 1542 1542 1542 1542 1542 1542 1543 1543 1543 1543 1542
1508 1510 1511 1513 1514 1516 1517 1519 1520 1522 1523 1525 1527 1529 1530 1531 1533 1534 1535 1536 1536 1537 1538 1538 1538 1539 1539 1539 1539 1539 1539 1540 1540 1540 1540 1540 1540 1541 1541 1541 1541 1541 1541
1507 1508 1510 1511 1513 1514 1516 1517 1519 1520 1522 1523 1525 1527 1528 1529 1531 1531 1532 1533 1534 1535 1535 1536 1536 1536 1537 1537 1537 1537 1537 1537 1537 1538 1538 1537 1537 1538 1539 1539 1538 1538 1538
1506 1508 1509 1510 1511 1513 1514 1516 1517 1519 1520 1522 1523 1525 1526 1527 1528 1529 1530 1530 1531 1532 1532 1533 1533 1534 1534 1534 1534 1534 1535 1535 1535 1535 1535 1535 1535 1535 1535 1536 1536 1536 1535
1506 1507 1508 1509 1510 1511 1512 1514 1515 1517 1519 1520 1522 1523 1524 1525 1526 1526 1527 1528 1528 1529 1529 1530 1530 1530 1531 1531 1531 1531 1531 1531 1532 1532 1532 1532 1532 1532 1532 1532 1533 1533 1533
1506 1506 1507 1508 1509 1510 1511 1512 1514 1515 1517 1518 1519 1520 1521 1522 1523 1524 1525 1525 1525 1526 1526 1526 1527 1527 1527 1527 1528 1528 1528 1528 1528 1528 1528 1529 1529 1529 1529 1529 1528 1529 1529
1505 1505 1506 1506 1507 1508 1509 1510 1512 1513 1514 1515 1516 1518 1519 1520 1521 1521 1522 1523 1523 1523 1523 1524 1524 1524 1524 1524 1524 1524 1524 1524 1525 1525 1525 1525 1525 1525 1525 1525 1525 1525 1525
1503 1504 1505 1505 1505 1506 1506 1508 1509 1510 1512 1513 1514 1515 1516 1517 1518 1518 1519 1519 1520 1520 1520 1520 1520 1521 1521 1521 1520 1521 1521 1521 1521 1521 1521 1521 1521 1521 1520 1520 1521 1521 1521
1503 1503 1503 1503 1503 1504 1505 1506 1507 1509 1510 1510 1511 1512 1513 1514 1515 1515 1516 1516 1516 1516 1516 1517 1517 1517 1517 1517 1517 1517 1517 1517 1517 1518 1517 1518 1518 1517 1517 1516 1516 1516 1516
1502 1502 1502 1502 1503 1503 1504 1504 1506 1507 1508 1508 1509 1510 1511 1511 1512 1512 1512 1513 1513 1513 1513 1513 1513 1513 1513 1513 1513 1513 1513 1513 1513 1513 1513 1513 1513 1513 1513 1513 1512 1512 1511
1501 1501 1502 1502 1501 1502 1502 1503 1504 1505 1506 1506 1507 1507 1508 1509 1509 1509 1509 1509 1509 1509 1509 1509 1509 1509 1509 1509 1509 1509 1509 1509 1509 1509 1509 1509 1508 1508 1508 1508 1508 1507 1507
1500 1500 1500 1500 1500 1501 1501 1502 1502 1502 1503 1504 1505 1505 1505 1506 1507 1507 1506 1506 1506 1506 1506 1506 1506 1506 1506 1506 1505 1505 1505 1506 1505 1505 1505 1504 1504 1504 1504 1504 1504 1503 1502
1499 1499 1499 1499 1499 1499 1499 1500 1500 1501 1501 1502 1503 1503 1503 1504 1504 1504 1504 1504 1504 1504 1503 1503 1503 1503 1503 1502 1502 1502 1502 1502 1501 1501 1502 1501 1500 1500 1499 1499 1499 1498 1498
1498 1498 1498 1498 1497 1498 1498 1498 1499 1499 1500 1500 1501 1501 1501 1502 1502 1502 1502 1502 1502 1502 1501 1501 1501 1501 1500 1500 1499 1499 1498 1498 1497 1497 1497 1497 1496 1496 1495 1494 1494 1493 1493
1497 1497 1497 1496 1496 1497 1497 1497 1498 1498 1498 1498 1499 1499 1500 1500 1500 1500 1500 1500 1500 1500 1500 1500 1500 1499 1499 1498 1497 1496 1495 1494 1494 1493 1493 1492 1492 1491 1491 1489 1489 1488 1488
1496 1495 1495 1495 1495 1496 1496 1496 1496 1496 1497 1497 1497 1498 1498 1499 1499 1499 1499 1499 1499 1499 1499 1499 1498 1498 1497 1496 1495 1493 1492 1491 1490 1490 1489 1488 1488 1487 1487 1486 1484 1484 1483
1494 1494 1494 1494 1494 1494 1494 1494 1495 1495 1495 1496 1496 1496 1497 1497 1497 1497 1497 1497 1498 1498 1497 1497 1497 1497 1496 1495 1493 1492 1490 1490 1488 1487 1486 1485 1485 1484 1483 1482 1482 1480 1479
1492 1492 1492 1492 1492 1492 1492 1493 1493 1493 1494 1494 1494 1495 1495 1495 1495 1496 1496 1496 1496 1496 1495 1495 1495 1494 1494 1493 1491 1490 1489 1487 1486 1485 1484 1483 1482 1481 1480 1479 1478 1477 1475